Вернуться в каталог

BREEZE-M DEB

LostHEO
NORAD 34236·DEBRIS·🇷🇺 Russia

Запущен Feb 28, 2006 с Baikonur Cosmodrome

Loading…

Ближайшие Пролёты (ближайшие 24 часа)

TLE

УстаревшееSource: Space-Track

Эпоха: Feb 17, 2026, 10:31 UTC

1 34236U 06006BB  26048.43884313  .00004582  00000-0  19347-2 0  9999
2 34236  51.6423 218.9090 4894716 247.2278  54.9809  5.70502861 40183

Отслеживайте BREEZE-M DEB в реальном времени с AllMySat

Download on the App Store